Paynesville, MN

3:15 PM CDT on July 23, 2017 (GMT -0500)
Paynesville

Weather History for KPEX - January, 2014

Change the Weather History Date:

Saturday, January 4, 2014

  Actual Average (KLJF) Record (KLJF)
Temperature  
Mean Temperature 12 °F -  
Max Temperature 33 °F 18 °F 42 °F (2001)
Min Temperature -8 °F 0 °F -26 °F (1968)
Degree Days  
Heating Degree Days 52    
Moisture  
Dew Point 1 °F    
Average Humidity 75    
Maximum Humidity 91    
Minimum Humidity 59    
Precipitation  
Precipitation 0.00 in - - ()
Sea Level Pressure  
Sea Level Pressure 29.93 in    
Wind  
Wind Speed 14 mph (WNW)    
Max Wind Speed 25 mph    
Max Gust Speed 37 mph    
Visibility 10 miles    
Events Snow    
Averages and records for this station are not official NWS values.
T = Trace of Precipitation, MM = Missing Value Source: NWS Daily Summary

Daily Weather History Graph

Daily Weather History Graph

Search for Another Location

Airport or City:

Trip Planner

Search our weather history database for the weather conditions in past years. The results will help you decide how hot, cold, wet, or windy it might be!

Date:

Astronomy

Jan. 04, 2014 Rise Set
Actual Time 7:58 AM CST 4:49 PM CST
Civil Twilight 7:24 AM CST 5:23 PM CST
Nautical Twilight 6:47 AM CST 6:00 PM CST
Astronomical Twilight 6:11 AM CST 6:36 PM CST
Moon 9:52 AM CST (1/4) 9:23 PM CST (1/4)
Length of Visible Light 9h 58m
Length of Day
8h 51m
Waxing Crescent, 15% of the Moon is Illuminated
Jan 4
Waxing Crescent
Jan 7
First Quarter
Jan 15
Full
Jan 23
Last Quarter
Jan 30
New

Hourly Weather History & Observations

Time (CST) Temp. Windchill Dew Point Humidity Pressure Visibility Wind Dir Wind Speed Gust Speed Precip Events Conditions
12:12 AM 32.0 °F 23.0 °F 29.7 °F 91% 29.37 in 10.0 mi WSW 11.5 mph - N/A   Scattered Clouds
12:32 AM 33.1 °F 24.4 °F 30.6 °F 90% 29.36 in 10.0 mi WSW 11.5 mph - N/A   Mostly Cloudy
12:53 AM 33.4 °F 24.3 °F 30.7 °F 90% 29.37 in 10.0 mi WSW 12.7 mph 19.6 mph N/A   Overcast
1:12 AM 33.8 °F 24.3 °F 31.1 °F 90% 29.38 in 10.0 mi West 13.8 mph - N/A   Overcast
1:32 AM 33.8 °F 24.3 °F 31.1 °F 90% 29.40 in 10.0 mi West 13.8 mph - N/A   Overcast
1:53 AM 28.9 °F 14.5 °F 25.3 °F 86% 29.44 in 10.0 mi West 25.3 mph 35.7 mph N/A   Overcast
2:12 AM 21.6 °F 4.7 °F 18.1 °F 87% 29.47 in 7.0 mi West 25.3 mph 36.8 mph N/A   Overcast
2:32 AM 19.9 °F 4.8 °F 16.7 °F 87% 29.48 in 7.0 mi West 18.4 mph 28.8 mph N/A   Overcast
2:53 AM 18.5 °F 2.4 °F 15.4 °F 88% 29.50 in 7.0 mi West 19.6 mph 32.2 mph N/A   Overcast
3:13 AM 18.5 °F 2.0 °F 15.3 °F 87% 29.52 in 7.0 mi WNW 20.7 mph 26.5 mph N/A   Overcast
3:32 AM 19.2 °F 4.3 °F 15.8 °F 87% 29.55 in 7.0 mi West 17.3 mph 25.3 mph N/A   Overcast
3:52 AM 19.2 °F 3.8 °F 14.9 °F 83% 29.58 in 10.0 mi WNW 18.4 mph 27.6 mph N/A   Overcast
4:12 AM 17.4 °F 1.9 °F 12.2 °F 80% 29.60 in 10.0 mi NW 17.3 mph 31.1 mph N/A   Overcast
4:33 AM 15.8 °F 0.3 °F 10.8 °F 80% 29.63 in 10.0 mi NW 16.1 mph 25.3 mph N/A   Overcast
4:52 AM 14.4 °F -2.5 °F 8.6 °F 78% 29.65 in 10.0 mi NW 18.4 mph 24.2 mph N/A   Mostly Cloudy
5:12 AM 12.6 °F -4.4 °F 6.8 °F 78% 29.67 in 10.0 mi NW 17.3 mph 24.2 mph N/A   Clear
5:32 AM 10.9 °F -7.5 °F 4.8 °F 76% 29.70 in 10.0 mi NW 19.6 mph 25.3 mph N/A   Clear
5:52 AM 9.5 °F -7.8 °F 3.7 °F 77% 29.74 in 10.0 mi NW 16.1 mph 25.3 mph N/A   Clear
6:12 AM 9.3 °F -7.4 °F 3.7 °F 78% 29.77 in 10.0 mi WNW 15.0 mph 23.0 mph N/A   Mostly Cloudy
6:32 AM 9.9 °F -8.4 °F 4.5 °F 79% 29.79 in 10.0 mi NW 18.4 mph 27.6 mph N/A   Overcast
6:53 AM 9.5 °F -9.8 °F 4.5 °F 80% 29.80 in 10.0 mi NW 20.7 mph 28.8 mph N/A   Overcast
7:12 AM 9.3 °F -9.1 °F 4.1 °F 79% 29.82 in 10.0 mi NNW 18.4 mph 32.2 mph N/A   Overcast
7:32 AM 9.1 °F -8.8 °F 3.7 °F 79% 29.83 in 7.0 mi NW 17.3 mph 25.3 mph N/A Snow Light Snow
7:53 AM 9.1 °F -7.7 °F 3.7 °F 79% 29.86 in 10.0 mi NW 15.0 mph 23.0 mph N/A   Overcast
8:12 AM 9.0 °F -9.5 °F 3.2 °F 77% 29.87 in 7.0 mi NW 18.4 mph 27.6 mph N/A   Overcast
8:33 AM 8.4 °F -9.2 °F 2.3 °F 76% 29.89 in 7.0 mi NW 16.1 mph 26.5 mph N/A   Overcast
8:52 AM 8.1 °F -9.0 °F 1.9 °F 76% 29.90 in 10.0 mi NW 15.0 mph 18.4 mph N/A   Mostly Cloudy
9:12 AM 7.7 °F -6.6 °F 1.4 °F 75% 29.92 in 10.0 mi NW 10.4 mph 18.4 mph N/A   Scattered Clouds
9:33 AM 8.2 °F -8.8 °F 1.4 °F 74% 29.93 in 10.0 mi NW 15.0 mph 18.4 mph N/A   Clear
9:52 AM 8.4 °F -8.6 °F 0.5 °F 70% 29.94 in 10.0 mi NNW 15.0 mph 19.6 mph N/A   Clear
10:12 AM 8.6 °F -7.0 °F 0.7 °F 70% 29.94 in 10.0 mi NW 12.7 mph 19.6 mph N/A   Clear
10:32 AM 8.6 °F -7.0 °F 1.0 °F 71% 29.95 in 10.0 mi NW 12.7 mph - N/A   Clear
10:52 AM 8.6 °F -8.9 °F 0.7 °F 70% 29.94 in 10.0 mi NW 16.1 mph 19.6 mph N/A   Clear
11:11 AM 8.8 °F -8.1 °F 0.5 °F 69% 29.96 in 10.0 mi NW 15.0 mph 18.4 mph N/A   Clear
11:32 AM 8.4 °F -7.9 °F 0.3 °F 70% 29.96 in 10.0 mi NW 13.8 mph 19.6 mph N/A   Clear
11:53 AM 7.7 °F -9.5 °F -0.8 °F 68% 29.96 in 10.0 mi NW 15.0 mph 21.9 mph N/A   Clear
12:12 PM 7.5 °F -9.7 °F -1.3 °F 67% 29.98 in 10.0 mi NW 15.0 mph 24.2 mph N/A   Clear
12:32 PM 7.5 °F -9.7 °F -1.7 °F 66% 29.99 in 10.0 mi NW 15.0 mph 20.7 mph N/A   Clear
12:52 PM 7.5 °F -7.7 °F -2.2 °F 65% 30.02 in 10.0 mi NW 11.5 mph 19.6 mph N/A   Clear
1:12 PM 7.7 °F -8.9 °F -2.2 °F 64% 30.02 in 10.0 mi WNW 13.8 mph 17.3 mph N/A   Clear
1:32 PM 6.8 °F -11.8 °F -4.0 °F 61% 30.02 in 10.0 mi WNW 17.3 mph 20.7 mph N/A   Clear
1:52 PM 7.2 °F -9.6 °F -4.5 °F 59% 30.04 in 10.0 mi NW 13.8 mph 23.0 mph N/A   Clear
2:12 PM 7.0 °F -10.4 °F -4.7 °F 59% 30.05 in 10.0 mi WNW 15.0 mph 19.6 mph N/A   Clear
2:32 PM 6.6 °F -10.9 °F -4.7 °F 60% 30.06 in 10.0 mi WNW 15.0 mph 20.7 mph N/A   Clear
2:52 PM 5.9 °F -12.4 °F -5.1 °F 61% 30.09 in 10.0 mi WNW 16.1 mph 19.6 mph N/A   Clear
3:12 PM 5.5 °F -11.6 °F -4.9 °F 62% 30.09 in 10.0 mi NW 13.8 mph 19.6 mph N/A   Clear
3:31 PM 5.0 °F -10.0 °F -4.7 °F 64% 30.09 in 10.0 mi NW 10.4 mph 17.3 mph N/A   Clear
3:52 PM 4.3 °F -11.7 °F -5.3 °F 65% 30.09 in 10.0 mi NW 11.5 mph 20.7 mph N/A   Clear
4:12 PM 3.9 °F -14.3 °F -4.9 °F 67% 30.09 in 10.0 mi WNW 15.0 mph 19.6 mph N/A   Clear
4:32 PM 3.0 °F -13.3 °F -5.3 °F 68% 30.11 in 10.0 mi WNW 11.5 mph 19.6 mph N/A   Clear
4:53 PM 1.9 °F -13.8 °F -5.8 °F 70% 30.13 in 10.0 mi WNW 10.4 mph 16.1 mph N/A   Clear
5:13 PM 0.9 °F -15.1 °F -6.3 °F 72% 30.14 in 10.0 mi WNW 10.4 mph - N/A   Clear
5:32 PM -0.0 °F -17.1 °F -7.2 °F 72% 30.14 in 10.0 mi WNW 11.5 mph 16.1 mph N/A   Clear
5:52 PM -0.8 °F -17.2 °F -7.8 °F 72% 30.15 in 10.0 mi WNW 10.4 mph - N/A   Clear
6:13 PM -1.3 °F -17.8 °F -8.1 °F 73% 30.15 in 10.0 mi WNW 10.4 mph - N/A   Clear
6:32 PM -1.8 °F -17.5 °F -8.5 °F 73% 30.16 in 10.0 mi WNW 9.2 mph - N/A   Clear
6:52 PM -2.2 °F -16.8 °F -8.7 °F 74% 30.18 in 10.0 mi WNW 8.1 mph - N/A   Clear
7:12 PM -2.4 °F -17.1 °F -8.7 °F 75% 30.18 in 10.0 mi WNW 8.1 mph - N/A   Clear
7:32 PM -2.7 °F -17.5 °F -8.7 °F 76% 30.19 in 10.0 mi WNW 8.1 mph - N/A   Clear
7:52 PM -3.1 °F -19.1 °F -8.9 °F 76% 30.20 in 10.0 mi WNW 9.2 mph - N/A   Clear
8:12 PM -3.5 °F -17.1 °F -9.4 °F 76% 30.20 in 10.0 mi WNW 6.9 mph - N/A   Clear
8:32 PM -4.0 °F -21.2 °F -9.8 °F 76% 30.21 in 10.0 mi NW 10.4 mph - N/A   Clear
8:52 PM -4.4 °F -21.6 °F -10.5 °F 75% 30.21 in 10.0 mi NW 10.4 mph - N/A   Clear
9:12 PM -4.5 °F -19.7 °F -11.2 °F 73% 30.22 in 10.0 mi NW 8.1 mph - N/A   Clear
9:33 PM -4.9 °F -20.1 °F -11.6 °F 73% 30.23 in 10.0 mi NW 8.1 mph - N/A   Clear
9:52 PM -4.9 °F -21.3 °F -11.9 °F 72% 30.23 in 10.0 mi NW 9.2 mph - N/A   Clear
10:12 PM -5.4 °F -20.8 °F -12.5 °F 72% 30.24 in 10.0 mi NW 8.1 mph - N/A   Clear
10:33 PM -6.2 °F -18.9 °F -13.0 °F 72% 30.25 in 10.0 mi NW 5.8 mph - N/A   Clear
10:52 PM -6.9 °F -21.2 °F -13.5 °F 73% 30.25 in 10.0 mi WNW 6.9 mph - N/A   Clear
11:12 PM -7.8 °F -20.8 °F -13.9 °F 75% 30.25 in 10.0 mi WNW 5.8 mph - N/A   Clear
11:33 PM -8.1 °F -22.7 °F -14.1 °F 75% 30.25 in 10.0 mi WNW 6.9 mph - N/A   Clear
11:52 PM -8.5 °F - -14.6 °F 75% 30.26 in 10.0 mi Calm Calm - N/A   Clear